Showing default

KANOPUS-V-IK, 42825

Orbit data source: Space-Track

KANOPUS-V-IK, 42825 is a payload satellite owned by VNIIEM (CIS) in SSO that was launched on Fri, 14 Jul 2017 UTC via a SOYUZ-2-1A launch vehicle from the Tyuratam Missile And Space Complex (TTMTR). Payload-class satellites include a variety of spacecraft equipped with specific instruments for various scientific and technological missions. These include communications satellites like Starlink; space stations such as the ISS; scientific satellites like the Hubble; Earth observation satellites from companies like Planet Labs, Umbra, and HawkEye 360; GPS; miniature CubeSats for education and research; and military/defense satellites.

Loading next visibility...
Identifier
42825, 2017-042A
Orbit
SSO
Country
Flag of CISCIS
Related business
Manufacturer
VNIIEM
Mission
Operational Civil Imaging
Bus & Motor
KANOPUS, Unknown motor
Mass
550 kg wet, 550 kg dry
Launch date (UTC)
2017-07-14 (9 years ago)
Launch vehicle
SOYUZ-2-1A
Launch site
Tyuratam Missile And Space Complex (TTMTR)
Object type
Payload
Rocket body
Debris
Shape & HBR
Box + 2 Pan, 3.0 m
Radar Cross Section
1.665 m², Large (>1 m²)

Expand to show TLE details & history
Last TLE update: 7 hours ago

TLE from 7 hours ago
0 KANOPUS-V-IK
1 42825U 17042A   26120.58761637  .00002510  00000-0  11046-3 0  9992
2 42825  97.3617  27.0755 0001947  91.1949 268.9511 15.22762472488129
Epoch: 2026-04-30T14:06Z
TLE epoch observation values (Epoch: 2026-04-30T14:06:10.054Z)
Latitude
Longitude
-42.99847°
Altitude
500.633 km
Speed
7.614 km/s
True Right ascension
01h 48m 18s
True Declination
0° 00' 00"
Sunlit
Object was in daylight at epoch
Visualization orbit readout
Latitude
Unknown
Longitude
Unknown
Altitude
Unknown
Speed
Unknown
Apparent Right ascension
Unknown
Apparent Declination
Unknown
Sunlit
N/A
Visualization observer readout
Local Sidereal Time
04:49:08
Azimuth
Unknown
Elevation
Unknown
Doppler factor
Unknown
Orbital elements
Apogee altitude
495.811 km
Perigee altitude
493.135 km
Semi-major axis
6,872.61 km
Eccentricity
0.00019
Inclination
97.3617°
RAAN
27.0755°
Arg. of periapsis
91.1949°
True anomaly
268.92879°
Mean anomaly
268.9511°
Eccentric anomaly
268.93995°
Mean motion
3.80944 °/min
Orbital period
94.5 mins
BSTAR
0.00011046
Loading maneuver chart data...
Computing Atmospheric mass density...
Loading historical data...
Loading historical data...
Loading historical data...
Loading historical data...
Loading historical data...
Loading historical data...
Loading historical data...

Documentation

Showing up to 5 results
|